sat.trackr.live / text

‹ back to catalog

YAOGAN-30 11B

NORAD 49028 · 2021-065C

PAYLOAD ACTIVE UNKNOWN

§ Identity

Operator
Country
PRC
Launch date
2021-07-19
Launch site
XICLF
Launch vehicle
Mass (kg)
RCS (m²)

External: N2YO · Heavens-Above · Gunter

§ Orbital elements

Epoch: 2026-05-25T04:15:38.967840Z

Period
95.84 min
Inclination
34.9942°
Eccentricity
0.0001253
Mean motion
15.02541028 rev/d
Perigee alt
558.2 km
Apogee alt
559.9 km
Semi-major
6,937.2 km
B*
1.7371e-4
RAAN
53.0359°
Arg perigee
268.3168°
Mean anomaly
91.7397°
Rev number
26,516

§ Raw data

YAOGAN-30 11B1 49028U 21065C   26145.17753435  .00002327  00000+0  17371-3 0  99952 49028  34.9942  53.0359 0001253 268.3168  91.7397 15.02541028265160

JSON: /api/v1/satellites/49028 · /tle

For live sub-satellite position, see the globe view (requires WebGL).

§ Visibility from observer

Set your observer location to see the next 7 days of passes ≥ 10°. The values pass through the URL so the page stays shareable.

No JS? Fill the form by hand. The geolocation button needs JavaScript.